Time,TemperatureF,DewpointF,PressureIn,WindDirection,WindDirectionDegrees,WindSpeedMPH,WindSpeedGustMPH,Humidity,HourlyPrecipIn,Conditions,Clouds,dailyrainin,SoftwareType,DateUTC
2013-06-06 00:03:00,61.0,48.0,-100.00,North,-999,-999.0,-999.0,63,-99.99,,,0.00,,2013-06-06 04:03:00,
2013-06-06 01:02:00,60.0,50.0,-100.00,North,-999,-999.0,-999.0,69,-99.99,,,0.00,,2013-06-06 05:02:00,
2013-06-06 02:02:00,60.0,50.0,-100.00,North,-999,0.0,-999.0,68,-99.99,,,0.00,,2013-06-06 06:02:00,
2013-06-06 04:02:00,57.0,49.0,-100.00,North,-999,-999.0,-999.0,74,-99.99,,,0.00,,2013-06-06 08:02:00,
2013-06-06 04:12:00,57.0,49.0,-100.00,North,-999,-999.0,-999.0,74,-99.99,,,0.00,,2013-06-06 08:12:00,
2013-06-06 04:22:00,57.0,49.0,-100.00,North,-999,-999.0,-999.0,74,-99.99,,,0.00,,2013-06-06 08:22:00,
2013-06-06 04:32:00,57.0,49.0,-100.00,North,-999,-999.0,-999.0,74,-99.99,,,0.00,,2013-06-06 08:32:00,
2013-06-06 04:42:00,57.0,49.0,-100.00,North,-999,-999.0,-999.0,74,-99.99,,,0.00,,2013-06-06 08:42:00,
2013-06-06 05:02:00,59.0,41.0,-100.00,North,-999,0.0,-999.0,52,0.00,,,-99.99,,2013-06-06 09:02:00,
2013-06-06 06:03:00,56.0,45.0,-100.00,North,-999,0.0,-999.0,67,-99.99,,,0.00,,2013-06-06 10:03:00,
2013-06-06 06:12:00,56.0,45.0,-100.00,North,-999,0.0,-999.0,67,-99.99,,,0.00,,2013-06-06 10:12:00,
2013-06-06 06:23:00,56.0,45.0,-100.00,North,-999,0.0,-999.0,67,-99.99,,,0.00,,2013-06-06 10:23:00,
2013-06-06 06:33:00,56.0,45.0,-100.00,North,-999,0.0,-999.0,67,-99.99,,,0.00,,2013-06-06 10:33:00,
2013-06-06 06:42:00,56.0,45.0,-100.00,North,-999,0.0,-999.0,67,-99.99,,,0.00,,2013-06-06 10:42:00,
2013-06-06 07:02:00,58.0,47.0,-100.00,North,-999,0.0,-999.0,67,0.00,,,0.00,,2013-06-06 11:02:00,
2013-06-06 08:03:00,61.0,43.0,-100.00,North,-999,0.0,-999.0,52,0.00,,,0.00,,2013-06-06 12:03:00,
2013-06-06 08:33:00,61.0,43.0,-100.00,North,-999,0.0,-999.0,52,0.00,,,0.00,,2013-06-06 12:33:00,
2013-06-06 08:43:00,61.0,43.0,-100.00,North,-999,0.0,-999.0,52,0.00,,,0.00,,2013-06-06 12:43:00,
2013-06-06 09:03:00,63.0,37.0,-100.00,North,-999,0.0,-999.0,38,0.00,,,0.00,,2013-06-06 13:03:00,
2013-06-06 09:13:00,63.0,-99.9,-100.00,North,-999,0.0,-999.0,38,0.00,,,0.00,,2013-06-06 13:13:00,
2013-06-06 09:23:00,63.0,-99.9,-100.00,North,-999,0.0,-999.0,38,0.00,,,0.00,,2013-06-06 13:23:00,
2013-06-06 09:33:00,63.0,-99.9,-100.00,North,-999,0.0,-999.0,38,0.00,,,0.00,,2013-06-06 13:33:00,
2013-06-06 09:43:00,63.0,-99.9,-100.00,North,-999,0.0,-999.0,38,0.00,,,0.00,,2013-06-06 13:43:00,
2013-06-06 10:03:00,66.0,37.0,-100.00,North,-999,-999.0,-999.0,35,0.00,,,0.00,,2013-06-06 14:03:00,
2013-06-06 10:13:00,66.0,37.0,-100.00,North,-999,-999.0,-999.0,35,0.00,,,0.00,,2013-06-06 14:13:00,
2013-06-06 10:23:00,66.0,37.0,-100.00,North,-999,-999.0,-999.0,35,0.00,,,0.00,,2013-06-06 14:23:00,
2013-06-06 10:33:00,66.0,37.0,-100.00,North,-999,-999.0,-999.0,35,0.00,,,0.00,,2013-06-06 14:33:00,
2013-06-06 10:43:00,66.0,37.0,-100.00,North,-999,-999.0,-999.0,35,0.00,,,0.00,,2013-06-06 14:43:00,
2013-06-06 11:03:00,68.0,38.0,-100.00,North,-999,0.0,-999.0,34,0.00,,,0.00,,2013-06-06 15:03:00,
2013-06-06 11:13:00,68.0,38.0,-100.00,North,-999,0.0,-999.0,34,0.00,,,0.00,,2013-06-06 15:13:00,
2013-06-06 11:23:00,68.0,38.0,-100.00,North,-999,0.0,-999.0,34,0.00,,,0.00,,2013-06-06 15:23:00,
2013-06-06 11:33:00,68.0,38.0,-100.00,North,-999,0.0,-999.0,34,0.00,,,0.00,,2013-06-06 15:33:00,
2013-06-06 11:43:00,68.0,38.0,-100.00,North,-999,0.0,-999.0,34,0.00,,,0.00,,2013-06-06 15:43:00,
2013-06-06 12:30:00,74.0,39.0,-100.00,North,-999,-999.0,-999.0,28,-99.99,,,0.00,,2013-06-06 16:30:00,
2013-06-06 13:03:00,74.0,39.0,-100.00,North,-999,-999.0,-999.0,28,-99.99,,,0.00,,2013-06-06 17:03:00,
2013-06-06 13:13:00,74.0,39.0,-100.00,North,-999,-999.0,-999.0,28,-99.99,,,0.00,,2013-06-06 17:13:00,
2013-06-06 13:23:00,74.0,39.0,-100.00,North,-999,-999.0,-999.0,28,-99.99,,,0.00,,2013-06-06 17:23:00,
2013-06-06 15:03:00,76.0,42.0,-100.00,North,-999,-999.0,-999.0,30,-99.99,,,0.00,,2013-06-06 19:03:00,
2013-06-06 15:13:00,76.0,42.0,-100.00,North,-999,-999.0,-999.0,30,-99.99,,,0.00,,2013-06-06 19:13:00,
2013-06-06 15:23:00,76.0,42.0,-100.00,North,-999,-999.0,-999.0,30,-99.99,,,0.00,,2013-06-06 19:23:00,
2013-06-06 15:33:00,76.0,42.0,-100.00,North,-999,-999.0,-999.0,30,-99.99,,,0.00,,2013-06-06 19:33:00,
2013-06-06 15:43:00,76.0,42.0,-100.00,North,-999,-999.0,-999.0,30,-99.99,,,0.00,,2013-06-06 19:43:00,
2013-06-06 16:03:00,76.0,40.0,-100.00,North,-999,0.0,-999.0,28,0.00,,,0.00,,2013-06-06 20:03:00,
2013-06-06 17:03:00,72.0,46.0,-100.00,North,-999,-999.0,-999.0,40,-99.99,,,0.00,,2013-06-06 21:03:00,
2013-06-06 17:13:00,72.0,46.0,-100.00,North,-999,-999.0,-999.0,40,-99.99,,,0.00,,2013-06-06 21:13:00,
2013-06-06 17:23:00,72.0,46.0,-100.00,North,-999,-999.0,-999.0,40,-99.99,,,0.00,,2013-06-06 21:23:00,
2013-06-06 17:33:00,72.0,46.0,-100.00,North,-999,-999.0,-999.0,40,-99.99,,,0.00,,2013-06-06 21:33:00,
2013-06-06 17:44:00,72.0,46.0,-100.00,North,-999,-999.0,-999.0,40,-99.99,,,0.00,,2013-06-06 21:44:00,
2013-06-06 18:03:00,70.0,51.0,-100.00,North,-999,0.0,-999.0,50,0.00,,,-99.99,,2013-06-06 22:03:00,
2013-06-06 18:13:00,70.0,51.0,-100.00,North,-999,0.0,-999.0,50,0.00,,,-99.99,,2013-06-06 22:13:00,
2013-06-06 18:23:00,70.0,51.0,-100.00,North,-999,0.0,-999.0,50,0.00,,,-99.99,,2013-06-06 22:23:00,
2013-06-06 18:33:00,70.0,51.0,-100.00,North,-999,0.0,-999.0,50,0.00,,,-99.99,,2013-06-06 22:33:00,
2013-06-06 18:43:00,70.0,51.0,-100.00,North,-999,0.0,-999.0,50,0.00,,,-99.99,,2013-06-06 22:43:00,
2013-06-06 19:03:00,67.0,49.0,-100.00,North,-999,-999.0,-999.0,53,0.00,,,0.00,,2013-06-06 23:03:00,
2013-06-06 19:13:00,67.0,49.0,-100.00,North,-999,-999.0,-999.0,53,0.00,,,0.00,,2013-06-06 23:13:00,
2013-06-06 19:22:00,67.0,49.0,-100.00,North,-999,-999.0,-999.0,53,0.00,,,0.00,,2013-06-06 23:22:00,
2013-06-06 19:33:00,67.0,49.0,-100.00,North,-999,-999.0,-999.0,53,0.00,,,0.00,,2013-06-06 23:33:00,
2013-06-06 19:43:00,67.0,49.0,-100.00,North,-999,-999.0,-999.0,53,0.00,,,0.00,,2013-06-06 23:43:00,
2013-06-06 20:02:00,65.0,49.0,-100.00,North,-999,-999.0,-999.0,55,0.00,,,0.00,,2013-06-07 00:02:00,
2013-06-06 20:13:00,65.0,49.0,-100.00,North,-999,-999.0,-999.0,55,0.00,,,0.00,,2013-06-07 00:13:00,
2013-06-06 20:22:00,65.0,49.0,-100.00,North,-999,-999.0,-999.0,55,0.00,,,0.00,,2013-06-07 00:22:00,
2013-06-06 20:32:00,65.0,49.0,-100.00,North,-999,-999.0,-999.0,55,0.00,,,0.00,,2013-06-07 00:32:00,
2013-06-06 20:42:00,65.0,49.0,-100.00,North,-999,-999.0,-999.0,55,0.00,,,0.00,,2013-06-07 00:42:00,
2013-06-06 22:02:00,62.0,45.0,-100.00,North,-999,0.0,-999.0,54,-99.99,,,0.00,,2013-06-07 02:02:00,
2013-06-06 22:12:00,62.0,45.0,-100.00,North,-999,0.0,-999.0,54,-99.99,,,0.00,,2013-06-07 02:12:00,
2013-06-06 22:22:00,62.0,45.0,-100.00,North,-999,0.0,-999.0,54,-99.99,,,0.00,,2013-06-07 02:22:00,
2013-06-06 22:32:00,62.0,45.0,-100.00,North,-999,0.0,-999.0,54,-99.99,,,0.00,,2013-06-07 02:32:00,
2013-06-06 22:42:00,62.0,45.0,-100.00,North,-999,0.0,-999.0,54,-99.99,,,0.00,,2013-06-07 02:42:00,
2013-06-06 23:02:00,61.0,45.0,-100.00,North,-999,-999.0,-999.0,56,0.00,,,0.00,,2013-06-07 03:02:00,
2013-06-06 23:12:00,61.0,45.0,-100.00,North,-999,-999.0,-999.0,56,0.00,,,0.00,,2013-06-07 03:12:00,
2013-06-06 23:22:00,61.0,45.0,-100.00,North,-999,-999.0,-999.0,56,0.00,,,0.00,,2013-06-07 03:22:00,
2013-06-06 23:33:00,61.0,45.0,-100.00,North,-999,-999.0,-999.0,56,0.00,,,0.00,,2013-06-07 03:33:00,
2013-06-06 23:43:00,61.0,45.0,-100.00,North,-999,-999.0,-999.0,56,0.00,,,0.00,,2013-06-07 03:43:00,